Time,TemperatureF,DewpointF,PressureIn,WindDirection,WindDirectionDegrees,WindSpeedMPH,WindSpeedGustMPH,Humidity,HourlyPrecipIn,Conditions,Clouds,dailyrainin,SoftwareType,DateUTC
2013-07-09 00:00:00,71.4,64.2,30.07,West,259,3.1,3.1,78,0.00,,,0.00,VWS V14.01,2013-07-09 04:00:00,
2013-07-09 00:01:00,71.4,64.2,30.07,West,259,2.7,3.1,78,0.00,,,0.00,VWS V14.01,2013-07-09 04:01:00,
2013-07-09 00:03:00,71.4,64.2,30.07,West,259,3.1,3.1,78,0.00,,,0.00,VWS V14.01,2013-07-09 04:03:00,
2013-07-09 00:05:00,71.4,64.2,30.07,West,267,2.7,3.6,78,0.00,,,0.00,VWS V14.01,2013-07-09 04:05:00,
2013-07-09 00:08:00,71.4,64.2,30.07,West,274,0.0,4.0,78,0.00,,,0.00,VWS V14.01,2013-07-09 04:08:00,
2013-07-09 00:10:00,71.4,64.2,30.07,West,273,0.0,4.0,78,0.00,,,0.00,VWS V14.01,2013-07-09 04:10:00,
2013-07-09 00:13:00,71.4,64.2,30.07,West,273,0.0,3.6,78,0.00,,,0.00,VWS V14.01,2013-07-09 04:13:00,
2013-07-09 00:15:00,71.4,64.2,30.07,West,273,0.0,3.6,78,0.00,,,0.00,VWS V14.01,2013-07-09 04:15:00,
2013-07-09 00:18:00,71.4,64.2,30.07,West,273,0.0,0.0,78,0.00,,,0.00,VWS V14.01,2013-07-09 04:18:00,
2013-07-09 00:20:00,71.4,64.2,30.07,West,273,0.0,0.0,78,0.00,,,0.00,VWS V14.01,2013-07-09 04:20:00,
2013-07-09 00:23:00,71.4,64.2,30.07,West,273,2.7,2.7,78,0.00,,,0.00,VWS V14.01,2013-07-09 04:23:00,
2013-07-09 00:25:00,71.4,64.2,30.07,West,273,2.2,2.7,78,0.00,,,0.00,VWS V14.01,2013-07-09 04:25:00,
2013-07-09 00:28:00,71.4,64.2,30.07,West,273,0.0,2.2,78,0.00,,,0.00,VWS V14.01,2013-07-09 04:28:00,
2013-07-09 00:30:00,71.4,64.2,30.07,West,273,0.0,2.2,78,0.00,,,0.00,VWS V14.01,2013-07-09 04:30:00,
2013-07-09 00:33:00,71.4,64.2,30.07,WSW,258,3.1,3.6,78,0.00,,,0.00,VWS V14.01,2013-07-09 04:33:00,
2013-07-09 00:35:00,71.4,64.2,30.07,WSW,258,2.7,3.6,78,0.00,,,0.00,VWS V14.01,2013-07-09 04:35:00,
2013-07-09 00:38:00,71.4,64.2,30.07,West,259,3.6,5.4,78,0.00,,,0.00,VWS V14.01,2013-07-09 04:38:00,
2013-07-09 00:40:00,71.4,64.2,30.07,West,261,5.4,5.4,78,0.00,,,0.00,VWS V14.01,2013-07-09 04:40:00,
2013-07-09 00:43:00,71.4,64.2,30.07,West,267,2.2,5.4,78,0.00,,,0.00,VWS V14.01,2013-07-09 04:43:00,
2013-07-09 00:45:00,71.4,64.2,30.07,West,267,2.2,5.4,78,0.00,,,0.00,VWS V14.01,2013-07-09 04:45:00,
2013-07-09 00:48:00,71.4,64.2,30.07,West,268,0.0,4.0,78,0.00,,,0.00,VWS V14.01,2013-07-09 04:48:00,
2013-07-09 00:50:00,71.4,64.2,30.07,WSW,244,2.7,4.0,78,0.00,,,0.00,VWS V14.01,2013-07-09 04:50:00,
2013-07-09 00:53:00,71.4,64.2,30.07,WSW,251,2.7,3.1,78,0.00,,,0.00,VWS V14.01,2013-07-09 04:53:00,
2013-07-09 00:55:00,71.4,64.2,30.07,WSW,251,2.7,3.1,78,0.00,,,0.00,VWS V14.01,2013-07-09 04:55:00,
2013-07-09 00:58:00,71.4,64.2,30.07,WSW,251,0.0,2.7,78,0.00,,,0.00,VWS V14.01,2013-07-09 04:58:00,
2013-07-09 01:00:00,71.4,64.2,30.07,WSW,251,0.0,2.7,78,0.00,,,0.00,VWS V14.01,2013-07-09 05:00:00,
2013-07-09 01:03:00,71.4,64.2,30.07,WSW,251,0.0,0.0,78,0.00,,,0.00,VWS V14.01,2013-07-09 05:03:00,
2013-07-09 01:05:00,71.4,64.2,30.07,WSW,251,0.0,0.0,78,0.00,,,0.00,VWS V14.01,2013-07-09 05:05:00,
2013-07-09 01:08:00,71.4,64.2,30.07,WSW,251,0.0,0.0,78,0.00,,,0.00,VWS V14.01,2013-07-09 05:08:00,
2013-07-09 01:10:00,71.4,64.2,30.07,WSW,251,0.0,0.0,78,0.00,,,0.00,VWS V14.01,2013-07-09 05:10:00,
2013-07-09 01:13:00,71.4,64.2,30.07,WSW,251,0.0,0.0,78,0.00,,,0.00,VWS V14.01,2013-07-09 05:13:00,
2013-07-09 01:15:00,71.4,64.2,30.07,WSW,251,0.0,0.0,78,0.00,,,0.00,VWS V14.01,2013-07-09 05:15:00,
2013-07-09 01:18:00,71.4,64.2,30.07,WSW,251,0.0,0.0,78,0.00,,,0.00,VWS V14.01,2013-07-09 05:18:00,
2013-07-09 01:20:00,71.4,64.2,30.07,WSW,251,0.0,0.0,78,0.00,,,0.00,VWS V14.01,2013-07-09 05:20:00,
2013-07-09 01:23:00,71.4,64.2,30.07,WSW,251,0.0,0.0,78,0.00,,,0.00,VWS V14.01,2013-07-09 05:23:00,
2013-07-09 01:25:00,71.4,64.2,30.07,WSW,251,0.0,0.0,78,0.00,,,0.00,VWS V14.01,2013-07-09 05:25:00,
2013-07-09 01:28:00,71.4,64.2,30.07,WSW,251,0.0,0.0,78,0.00,,,0.00,VWS V14.01,2013-07-09 05:28:00,
2013-07-09 01:30:00,71.4,64.2,30.07,WSW,251,0.0,0.0,78,0.00,,,0.00,VWS V14.01,2013-07-09 05:30:00,
2013-07-09 01:34:00,71.4,64.2,30.07,WSW,251,0.0,0.0,78,0.00,,,0.00,VWS V14.01,2013-07-09 05:34:00,
2013-07-09 01:35:00,71.4,64.2,30.07,WSW,251,0.0,0.0,78,0.00,,,0.00,VWS V14.01,2013-07-09 05:35:00,
2013-07-09 01:39:00,71.4,64.2,30.07,WSW,251,0.0,0.0,78,0.00,,,0.00,VWS V14.01,2013-07-09 05:39:00,
2013-07-09 01:40:00,71.4,64.2,30.07,WSW,251,0.0,0.0,78,0.00,,,0.00,VWS V14.01,2013-07-09 05:40:00,
2013-07-09 01:44:00,71.4,64.2,30.07,WSW,251,0.0,0.0,78,0.00,,,0.00,VWS V14.01,2013-07-09 05:44:00,
2013-07-09 01:45:00,71.4,64.2,30.07,WSW,251,0.0,0.0,78,0.00,,,0.00,VWS V14.01,2013-07-09 05:45:00,
2013-07-09 01:49:00,71.4,64.2,30.07,WSW,251,0.0,0.0,78,0.00,,,0.00,VWS V14.01,2013-07-09 05:49:00,
2013-07-09 01:50:00,71.4,64.2,30.07,WSW,251,0.0,0.0,78,0.00,,,0.00,VWS V14.01,2013-07-09 05:50:00,
2013-07-09 01:54:00,71.4,64.2,30.07,WSW,251,0.0,0.0,78,0.00,,,0.00,VWS V14.01,2013-07-09 05:54:00,
2013-07-09 01:55:00,71.4,64.2,30.07,WSW,251,0.0,0.0,78,0.00,,,0.00,VWS V14.01,2013-07-09 05:55:00,
2013-07-09 01:59:00,71.4,64.2,30.04,WSW,251,0.0,0.0,78,0.00,,,0.00,VWS V14.01,2013-07-09 05:59:00,
2013-07-09 02:00:00,71.4,64.2,30.04,WSW,251,0.0,0.0,78,0.00,,,0.00,VWS V14.01,2013-07-09 06:00:00,
2013-07-09 02:04:00,71.4,64.2,30.04,WSW,251,0.0,0.0,78,0.00,,,0.00,VWS V14.01,2013-07-09 06:04:00,
2013-07-09 02:05:00,71.4,64.2,30.04,WSW,251,0.0,0.0,78,0.00,,,0.00,VWS V14.01,2013-07-09 06:05:00,
2013-07-09 02:09:00,71.4,64.2,30.04,WSW,251,0.0,3.1,78,0.00,,,0.00,VWS V14.01,2013-07-09 06:09:00,
2013-07-09 02:10:00,71.4,64.2,30.04,WSW,251,0.0,3.1,78,0.00,,,0.00,VWS V14.01,2013-07-09 06:10:00,
2013-07-09 02:14:00,71.4,64.2,30.07,WSW,256,0.0,3.6,78,0.00,,,0.00,VWS V14.01,2013-07-09 06:14:00,
2013-07-09 02:15:00,71.4,64.2,30.07,WSW,256,0.0,3.6,78,0.00,,,0.00,VWS V14.01,2013-07-09 06:15:00,
2013-07-09 02:19:00,71.4,64.2,30.07,WSW,256,0.0,0.0,78,0.00,,,0.00,VWS V14.01,2013-07-09 06:19:00,
2013-07-09 02:20:00,71.4,64.2,30.07,WSW,256,0.0,0.0,78,0.00,,,0.00,VWS V14.01,2013-07-09 06:20:00,
2013-07-09 02:24:00,71.4,64.2,30.07,WSW,256,0.0,0.0,78,0.00,,,0.00,VWS V14.01,2013-07-09 06:24:00,
2013-07-09 02:25:00,71.4,64.2,30.07,WSW,256,0.0,0.0,78,0.00,,,0.00,VWS V14.01,2013-07-09 06:25:00,
2013-07-09 02:29:00,71.4,64.2,30.04,WSW,256,3.6,4.0,78,0.00,,,0.00,VWS V14.01,2013-07-09 06:29:00,
2013-07-09 02:30:00,71.4,64.2,30.04,WSW,256,0.0,4.0,78,0.00,,,0.00,VWS V14.01,2013-07-09 06:30:00,
2013-07-09 02:34:00,71.4,64.2,30.04,WSW,257,0.0,3.1,78,0.00,,,0.00,VWS V14.01,2013-07-09 06:34:00,
2013-07-09 02:35:00,71.4,64.2,30.04,WSW,256,0.0,3.1,78,0.00,,,0.00,VWS V14.01,2013-07-09 06:35:00,
2013-07-09 02:39:00,71.4,64.2,30.04,WSW,256,0.0,0.0,78,0.00,,,0.00,VWS V14.01,2013-07-09 06:39:00,
2013-07-09 02:40:00,71.4,64.2,30.04,WSW,256,0.0,0.0,78,0.00,,,0.00,VWS V14.01,2013-07-09 06:40:00,
2013-07-09 02:44:00,71.4,64.2,30.04,WSW,256,0.0,0.0,78,0.00,,,0.00,VWS V14.01,2013-07-09 06:44:00,
2013-07-09 02:45:00,71.4,64.2,30.04,WSW,256,0.0,0.0,78,0.00,,,0.00,VWS V14.01,2013-07-09 06:45:00,
2013-07-09 02:49:00,71.4,64.2,30.04,WSW,256,0.0,0.0,78,0.00,,,0.00,VWS V14.01,2013-07-09 06:49:00,
2013-07-09 02:50:00,71.4,64.2,30.04,WSW,256,0.0,0.0,78,0.00,,,0.00,VWS V14.01,2013-07-09 06:50:00,
2013-07-09 02:54:00,71.4,64.2,30.04,WSW,256,0.0,0.0,78,0.00,,,0.00,VWS V14.01,2013-07-09 06:54:00,
2013-07-09 02:55:00,71.4,64.2,30.04,WSW,256,0.0,0.0,78,0.00,,,0.00,VWS V14.01,2013-07-09 06:55:00,
2013-07-09 02:59:00,71.4,64.2,30.04,WSW,256,0.0,0.0,78,0.00,,,0.00,VWS V14.01,2013-07-09 06:59:00,
2013-07-09 03:00:00,71.4,64.2,30.04,WSW,256,0.0,0.0,78,0.00,,,0.00,VWS V14.01,2013-07-09 07:00:00,
2013-07-09 03:04:00,71.4,64.2,30.04,WSW,256,0.0,0.0,78,0.00,,,0.00,VWS V14.01,2013-07-09 07:04:00,
2013-07-09 03:05:00,71.4,64.2,30.04,WSW,256,0.0,0.0,78,0.00,,,0.00,VWS V14.01,2013-07-09 07:05:00,
2013-07-09 03:09:00,71.4,64.2,30.04,WSW,256,0.0,0.0,78,0.00,,,0.00,VWS V14.01,2013-07-09 07:09:00,
2013-07-09 03:10:00,71.4,64.2,30.04,WSW,256,0.0,0.0,78,0.00,,,0.00,VWS V14.01,2013-07-09 07:10:00,
2013-07-09 03:14:00,71.4,64.2,30.04,WSW,256,0.0,0.0,78,0.00,,,0.00,VWS V14.01,2013-07-09 07:14:00,
2013-07-09 03:15:00,71.4,64.2,30.04,WSW,256,0.0,0.0,78,0.00,,,0.00,VWS V14.01,2013-07-09 07:15:00,
2013-07-09 03:19:00,71.4,64.2,30.04,WSW,256,0.0,0.0,78,0.00,,,0.00,VWS V14.01,2013-07-09 07:19:00,
2013-07-09 03:20:00,71.4,64.2,30.04,WSW,256,0.0,0.0,78,0.00,,,0.00,VWS V14.01,2013-07-09 07:20:00,
2013-07-09 03:24:00,71.4,64.2,30.04,WSW,256,0.0,0.0,78,0.00,,,0.00,VWS V14.01,2013-07-09 07:24:00,
2013-07-09 03:25:00,71.4,64.2,30.04,WSW,256,0.0,0.0,78,0.00,,,0.00,VWS V14.01,2013-07-09 07:25:00,
2013-07-09 03:29:00,71.4,64.2,30.04,WSW,256,0.0,0.0,78,0.00,,,0.00,VWS V14.01,2013-07-09 07:29:00,
2013-07-09 03:30:00,71.4,64.2,30.04,WSW,256,0.0,0.0,78,0.00,,,0.00,VWS V14.01,2013-07-09 07:30:00,
2013-07-09 03:34:00,71.4,64.2,30.04,WSW,256,0.0,0.0,78,0.00,,,0.00,VWS V14.01,2013-07-09 07:34:00,
2013-07-09 03:35:00,71.4,64.2,30.04,WSW,256,0.0,0.0,78,0.00,,,0.00,VWS V14.01,2013-07-09 07:35:00,
2013-07-09 03:39:00,71.4,64.2,30.04,WSW,256,0.0,0.0,78,0.00,,,0.00,VWS V14.01,2013-07-09 07:39:00,
2013-07-09 03:40:00,71.4,64.2,30.04,WSW,256,0.0,0.0,78,0.00,,,0.00,VWS V14.01,2013-07-09 07:40:00,
2013-07-09 03:44:00,71.4,64.2,30.04,WSW,256,0.0,0.0,78,0.00,,,0.00,VWS V14.01,2013-07-09 07:44:00,
2013-07-09 03:45:00,71.4,64.2,30.04,WSW,256,0.0,0.0,78,0.00,,,0.00,VWS V14.01,2013-07-09 07:45:00,
2013-07-09 03:49:00,67.6,63.3,30.04,WSW,256,0.0,0.0,86,0.00,,,0.00,VWS V14.01,2013-07-09 07:49:00,
2013-07-09 03:50:00,67.6,63.3,30.04,WSW,256,0.0,0.0,86,0.00,,,0.00,VWS V14.01,2013-07-09 07:50:00,
2013-07-09 03:54:00,67.6,63.3,30.04,WSW,256,0.0,0.0,86,0.00,,,0.00,VWS V14.01,2013-07-09 07:54:00,
2013-07-09 03:55:00,67.6,63.3,30.04,WSW,256,0.0,0.0,86,0.00,,,0.00,VWS V14.01,2013-07-09 07:55:00,
2013-07-09 03:59:00,67.6,63.3,30.04,WSW,256,0.0,2.2,86,0.00,,,0.00,VWS V14.01,2013-07-09 07:59:00,
2013-07-09 04:00:00,67.6,63.3,30.04,WSW,256,2.2,2.2,86,0.00,,,0.00,VWS V14.01,2013-07-09 08:00:00,
2013-07-09 04:04:00,67.6,63.3,30.04,WSW,256,0.0,2.7,86,0.00,,,0.00,VWS V14.01,2013-07-09 08:04:00,
2013-07-09 04:05:00,67.6,63.3,30.04,WSW,256,0.0,2.7,86,0.00,,,0.00,VWS V14.01,2013-07-09 08:05:00,
2013-07-09 04:09:00,67.5,63.1,30.04,WSW,256,0.0,0.0,86,0.00,,,0.00,VWS V14.01,2013-07-09 08:09:00,
2013-07-09 04:10:00,67.5,63.1,30.04,WSW,256,0.0,0.0,86,0.00,,,0.00,VWS V14.01,2013-07-09 08:10:00,
2013-07-09 04:14:00,67.5,63.1,30.04,WSW,256,0.0,0.0,86,0.00,,,0.00,VWS V14.01,2013-07-09 08:14:00,
2013-07-09 04:15:00,67.5,63.1,30.04,WSW,256,0.0,0.0,86,0.00,,,0.00,VWS V14.01,2013-07-09 08:15:00,
2013-07-09 04:19:00,67.5,63.1,30.04,WSW,256,0.0,0.0,86,0.00,,,0.00,VWS V14.01,2013-07-09 08:19:00,
2013-07-09 04:20:00,67.5,63.1,30.04,WSW,256,0.0,0.0,86,0.00,,,0.00,VWS V14.01,2013-07-09 08:20:00,
2013-07-09 04:24:00,67.5,63.1,30.04,WSW,256,0.0,0.0,86,0.00,,,0.00,VWS V14.01,2013-07-09 08:24:00,
2013-07-09 04:25:00,67.5,63.1,30.04,WSW,256,0.0,0.0,86,0.00,,,0.00,VWS V14.01,2013-07-09 08:25:00,
2013-07-09 04:29:00,67.5,63.1,30.04,WSW,256,0.0,0.0,86,0.00,,,0.00,VWS V14.01,2013-07-09 08:29:00,
2013-07-09 04:30:00,67.5,63.1,30.04,WSW,256,0.0,0.0,86,0.00,,,0.00,VWS V14.01,2013-07-09 08:30:00,
2013-07-09 04:34:00,67.5,63.1,30.04,WSW,256,0.0,0.0,86,0.00,,,0.00,VWS V14.01,2013-07-09 08:34:00,
2013-07-09 04:35:00,67.5,63.1,30.04,WSW,256,0.0,0.0,86,0.00,,,0.00,VWS V14.01,2013-07-09 08:35:00,
2013-07-09 04:39:00,67.5,63.1,30.04,WSW,256,0.0,0.0,86,0.00,,,0.00,VWS V14.01,2013-07-09 08:39:00,
2013-07-09 04:40:00,67.5,63.1,30.04,WSW,256,0.0,0.0,86,0.00,,,0.00,VWS V14.01,2013-07-09 08:40:00,
2013-07-09 04:44:00,67.5,63.1,30.07,WSW,256,0.0,0.0,86,0.00,,,0.00,VWS V14.01,2013-07-09 08:44:00,
2013-07-09 04:45:00,67.5,63.1,30.07,WSW,256,0.0,0.0,86,0.00,,,0.00,VWS V14.01,2013-07-09 08:45:00,
2013-07-09 04:49:00,67.5,63.1,30.07,WSW,256,0.0,0.0,86,0.00,,,0.00,VWS V14.01,2013-07-09 08:49:00,
2013-07-09 04:50:00,67.5,63.1,30.07,WSW,256,0.0,0.0,86,0.00,,,0.00,VWS V14.01,2013-07-09 08:50:00,
2013-07-09 04:54:00,67.5,63.1,30.07,WSW,256,0.0,0.0,86,0.00,,,0.00,VWS V14.01,2013-07-09 08:54:00,
2013-07-09 04:55:00,67.5,63.1,30.07,WSW,256,0.0,0.0,86,0.00,,,0.00,VWS V14.01,2013-07-09 08:55:00,
2013-07-09 04:59:00,67.5,63.1,30.07,WSW,256,0.0,0.0,86,0.00,,,0.00,VWS V14.01,2013-07-09 08:59:00,
2013-07-09 05:00:00,67.5,63.1,30.07,WSW,256,0.0,0.0,86,0.00,,,0.00,VWS V14.01,2013-07-09 09:00:00,
2013-07-09 05:04:00,66.7,62.8,30.07,WSW,256,0.0,0.0,87,0.00,,,0.00,VWS V14.01,2013-07-09 09:04:00,
2013-07-09 05:05:00,66.7,62.8,30.07,WSW,256,0.0,0.0,87,0.00,,,0.00,VWS V14.01,2013-07-09 09:05:00,
2013-07-09 05:09:00,66.9,63.3,30.07,WSW,256,0.0,0.0,88,0.00,,,0.00,VWS V14.01,2013-07-09 09:09:00,
2013-07-09 05:10:00,66.9,63.3,30.07,WSW,256,0.0,0.0,88,0.00,,,0.00,VWS V14.01,2013-07-09 09:10:00,
2013-07-09 05:14:00,66.7,63.1,30.04,West,263,2.7,4.0,88,0.00,,,0.00,VWS V14.01,2013-07-09 09:14:00,
2013-07-09 05:15:00,66.7,63.1,30.04,West,263,0.0,4.0,88,0.00,,,0.00,VWS V14.01,2013-07-09 09:15:00,
2013-07-09 05:19:00,66.7,63.1,30.04,West,263,0.0,0.0,88,0.00,,,0.00,VWS V14.01,2013-07-09 09:19:00,
2013-07-09 05:20:00,66.7,63.1,30.04,West,263,0.0,0.0,88,0.00,,,0.00,VWS V14.01,2013-07-09 09:20:00,
2013-07-09 05:24:00,66.7,63.1,30.04,West,263,0.0,0.0,88,0.00,,,0.00,VWS V14.01,2013-07-09 09:24:00,
2013-07-09 05:25:00,66.7,63.1,30.04,West,263,0.0,0.0,88,0.00,,,0.00,VWS V14.01,2013-07-09 09:25:00,
2013-07-09 05:29:00,66.7,63.1,30.07,West,263,3.1,3.6,88,0.00,,,0.00,VWS V14.01,2013-07-09 09:29:00,
2013-07-09 05:30:00,66.7,63.1,30.07,West,263,0.0,3.6,88,0.00,,,0.00,VWS V14.01,2013-07-09 09:30:00,
2013-07-09 05:34:00,66.9,63.3,30.07,West,263,0.0,0.0,88,0.00,,,0.00,VWS V14.01,2013-07-09 09:34:00,
2013-07-09 05:35:00,66.9,63.3,30.07,West,263,0.0,0.0,88,0.00,,,0.00,VWS V14.01,2013-07-09 09:35:00,
2013-07-09 05:39:00,66.9,63.3,30.07,West,263,0.0,2.7,88,0.00,,,0.00,VWS V14.01,2013-07-09 09:39:00,
2013-07-09 05:40:00,66.9,63.3,30.07,West,263,0.0,2.7,88,0.00,,,0.00,VWS V14.01,2013-07-09 09:40:00,
2013-07-09 05:44:00,66.9,63.3,30.07,West,263,0.0,0.0,88,0.00,,,0.00,VWS V14.01,2013-07-09 09:44:00,
2013-07-09 05:45:00,66.9,63.3,30.07,West,263,0.0,0.0,88,0.00,,,0.00,VWS V14.01,2013-07-09 09:45:00,
2013-07-09 05:49:00,66.9,63.3,30.07,West,263,0.0,0.0,88,0.00,,,0.00,VWS V14.01,2013-07-09 09:49:00,
2013-07-09 05:50:00,66.9,63.3,30.07,West,263,0.0,0.0,88,0.00,,,0.00,VWS V14.01,2013-07-09 09:50:00,
2013-07-09 05:54:00,66.9,63.3,30.07,West,263,0.0,0.0,88,0.00,,,0.00,VWS V14.01,2013-07-09 09:54:00,
2013-07-09 05:55:00,66.9,63.3,30.07,West,263,0.0,0.0,88,0.00,,,0.00,VWS V14.01,2013-07-09 09:55:00,
2013-07-09 05:59:00,66.9,63.3,30.07,West,263,0.0,0.0,88,0.00,,,0.00,VWS V14.01,2013-07-09 09:59:00,
2013-07-09 06:00:00,66.9,63.3,30.07,West,263,0.0,0.0,88,0.00,,,0.00,VWS V14.01,2013-07-09 10:00:00,
2013-07-09 06:04:00,66.9,63.3,30.07,West,263,0.0,0.0,88,0.00,,,0.00,VWS V14.01,2013-07-09 10:04:00,
2013-07-09 06:05:00,66.9,63.3,30.07,West,263,0.0,0.0,88,0.00,,,0.00,VWS V14.01,2013-07-09 10:05:00,
2013-07-09 06:09:00,66.9,63.3,30.07,West,263,0.0,0.0,88,0.00,,,0.00,VWS V14.01,2013-07-09 10:09:00,
2013-07-09 06:10:00,66.9,63.3,30.07,West,263,0.0,0.0,88,0.00,,,0.00,VWS V14.01,2013-07-09 10:10:00,
2013-07-09 06:14:00,66.9,63.3,30.07,West,263,0.0,0.0,88,0.00,,,0.00,VWS V14.01,2013-07-09 10:14:00,
2013-07-09 06:15:00,66.9,63.3,30.07,West,263,0.0,0.0,88,0.00,,,0.00,VWS V14.01,2013-07-09 10:15:00,
2013-07-09 06:19:00,66.9,63.3,30.07,West,263,0.0,0.0,88,0.00,,,0.00,VWS V14.01,2013-07-09 10:19:00,
2013-07-09 06:20:00,66.9,63.3,30.07,West,263,0.0,0.0,88,0.00,,,0.00,VWS V14.01,2013-07-09 10:20:00,
2013-07-09 06:24:00,66.9,63.3,30.07,West,263,0.0,0.0,88,0.00,,,0.00,VWS V14.01,2013-07-09 10:24:00,
2013-07-09 06:25:00,66.9,63.3,30.07,West,263,0.0,0.0,88,0.00,,,0.00,VWS V14.01,2013-07-09 10:25:00,
2013-07-09 06:29:00,66.9,63.3,30.04,West,263,0.0,0.0,88,0.00,,,0.00,VWS V14.01,2013-07-09 10:29:00,
2013-07-09 06:30:00,66.9,63.3,30.04,West,263,0.0,0.0,88,0.00,,,0.00,VWS V14.01,2013-07-09 10:30:00,
2013-07-09 06:34:00,67.6,64.0,30.04,West,263,0.0,0.0,88,0.00,,,0.00,VWS V14.01,2013-07-09 10:34:00,
2013-07-09 06:35:00,67.6,64.0,30.04,West,263,0.0,0.0,88,0.00,,,0.00,VWS V14.01,2013-07-09 10:35:00,
2013-07-09 06:39:00,67.8,64.1,30.04,West,263,0.0,0.0,88,0.00,,,0.00,VWS V14.01,2013-07-09 10:39:00,
2013-07-09 06:40:00,67.8,64.1,30.04,West,263,0.0,0.0,88,0.00,,,0.00,VWS V14.01,2013-07-09 10:40:00,
2013-07-09 06:44:00,68.0,64.3,30.07,West,263,0.0,0.0,88,0.00,,,0.00,VWS V14.01,2013-07-09 10:44:00,
2013-07-09 06:45:00,68.0,64.3,30.07,West,263,0.0,0.0,88,0.00,,,0.00,VWS V14.01,2013-07-09 10:45:00,
2013-07-09 06:49:00,68.0,64.3,30.07,West,263,0.0,0.0,88,0.00,,,0.00,VWS V14.01,2013-07-09 10:49:00,
2013-07-09 06:50:00,68.0,64.3,30.07,West,263,0.0,0.0,88,0.00,,,0.00,VWS V14.01,2013-07-09 10:50:00,
2013-07-09 06:55:00,68.0,64.3,30.07,West,263,0.0,0.0,88,0.00,,,0.00,VWS V14.01,2013-07-09 10:55:00,
2013-07-09 07:00:00,68.5,64.8,30.07,West,263,0.0,0.0,88,0.00,,,0.00,VWS V14.01,2013-07-09 11:00:00,
2013-07-09 07:05:00,68.9,65.2,30.07,West,263,0.0,0.0,88,0.00,,,0.00,VWS V14.01,2013-07-09 11:05:00,
2013-07-09 07:10:00,68.9,65.2,30.07,West,263,0.0,0.0,88,0.00,,,0.00,VWS V14.01,2013-07-09 11:10:00,
2013-07-09 07:15:00,68.9,65.2,30.07,West,263,0.0,0.0,88,0.00,,,0.00,VWS V14.01,2013-07-09 11:15:00,
2013-07-09 07:20:00,68.9,65.2,30.07,West,263,0.0,0.0,88,0.00,,,0.00,VWS V14.01,2013-07-09 11:20:00,
2013-07-09 07:25:00,68.9,65.2,30.07,West,263,0.0,0.0,88,0.00,,,0.00,VWS V14.01,2013-07-09 11:25:00,
2013-07-09 07:30:00,68.9,65.2,30.07,West,263,0.0,0.0,88,0.00,,,0.00,VWS V14.01,2013-07-09 11:30:00,
2013-07-09 07:35:00,68.9,65.2,30.07,West,263,0.0,0.0,88,0.00,,,0.00,VWS V14.01,2013-07-09 11:35:00,
2013-07-09 07:40:00,68.9,65.2,30.07,West,261,5.4,6.3,88,0.00,,,0.00,VWS V14.01,2013-07-09 11:40:00,
2013-07-09 07:45:00,68.9,65.2,30.10,WSW,256,0.0,2.2,88,0.00,,,0.00,VWS V14.01,2013-07-09 11:45:00,
2013-07-09 07:50:00,68.9,65.2,30.10,WSW,253,0.0,0.0,88,0.00,,,0.00,VWS V14.01,2013-07-09 11:50:00,
2013-07-09 07:55:00,68.9,65.2,30.10,WSW,248,0.0,2.7,88,0.00,,,0.00,VWS V14.01,2013-07-09 11:55:00,
2013-07-09 08:00:00,68.9,65.2,30.07,WSW,248,0.0,0.0,88,0.00,,,0.00,VWS V14.01,2013-07-09 12:00:00,
2013-07-09 08:05:00,68.9,65.2,30.07,WSW,248,0.0,0.0,88,0.00,,,0.00,VWS V14.01,2013-07-09 12:05:00,
2013-07-09 08:10:00,68.9,65.2,30.07,WSW,248,0.0,0.0,88,0.00,,,0.00,VWS V14.01,2013-07-09 12:10:00,
2013-07-09 08:15:00,68.9,65.2,30.07,WSW,248,0.0,0.0,88,0.00,,,0.00,VWS V14.01,2013-07-09 12:15:00,
2013-07-09 08:20:00,68.9,65.2,30.07,WSW,248,0.0,0.0,88,0.00,,,0.00,VWS V14.01,2013-07-09 12:20:00,
2013-07-09 08:25:00,68.9,65.2,30.07,WSW,248,0.0,0.0,88,0.00,,,0.00,VWS V14.01,2013-07-09 12:25:00,
2013-07-09 08:30:00,68.9,65.2,30.07,WSW,248,0.0,0.0,88,0.00,,,0.00,VWS V14.01,2013-07-09 12:30:00,
2013-07-09 08:35:00,68.9,65.2,30.07,WSW,248,0.0,0.0,88,0.00,,,0.00,VWS V14.01,2013-07-09 12:35:00,
2013-07-09 08:40:00,68.9,65.2,30.07,WSW,247,0.0,0.0,88,0.00,,,0.00,VWS V14.01,2013-07-09 12:40:00,
2013-07-09 08:45:00,68.9,65.2,30.07,WSW,248,0.0,0.0,88,0.00,,,0.00,VWS V14.01,2013-07-09 12:45:00,
2013-07-09 08:50:00,68.9,65.2,30.07,WSW,248,0.0,0.0,88,0.00,,,0.00,VWS V14.01,2013-07-09 12:50:00,
2013-07-09 08:55:00,68.9,65.2,30.07,WSW,248,0.0,0.0,88,0.00,,,0.00,VWS V14.01,2013-07-09 12:55:00,
2013-07-09 09:00:00,68.9,65.2,30.07,WSW,248,0.0,0.0,88,0.00,,,0.00,VWS V14.01,2013-07-09 13:00:00,
2013-07-09 09:05:00,68.9,65.2,30.07,WSW,248,0.0,0.0,88,0.00,,,0.00,VWS V14.01,2013-07-09 13:05:00,
2013-07-09 09:10:00,68.9,65.2,30.07,WSW,248,0.0,0.0,88,0.00,,,0.00,VWS V14.01,2013-07-09 13:10:00,
2013-07-09 09:15:00,68.9,65.2,30.07,WSW,248,0.0,0.0,88,0.00,,,0.00,VWS V14.01,2013-07-09 13:15:00,
2013-07-09 09:20:00,68.9,65.2,30.07,WSW,248,0.0,0.0,88,0.00,,,0.00,VWS V14.01,2013-07-09 13:20:00,
2013-07-09 09:25:00,68.9,65.2,30.07,WSW,248,0.0,0.0,88,0.00,,,0.00,VWS V14.01,2013-07-09 13:25:00,
2013-07-09 09:30:00,68.9,65.2,30.07,WSW,248,0.0,0.0,88,0.00,,,0.00,VWS V14.01,2013-07-09 13:30:00,
2013-07-09 09:35:00,75.7,66.5,30.07,WSW,248,0.0,0.0,73,0.00,,,0.00,VWS V14.01,2013-07-09 13:35:00,
2013-07-09 09:40:00,75.7,66.5,30.07,WSW,248,0.0,0.0,73,0.00,,,0.00,VWS V14.01,2013-07-09 13:40:00,
2013-07-09 09:45:00,75.7,66.5,30.07,WSW,248,0.0,0.0,73,0.00,,,0.00,VWS V14.01,2013-07-09 13:45:00,
2013-07-09 09:46:00,75.7,66.5,30.07,WSW,248,0.0,0.0,73,0.00,,,0.00,VWS V14.01,2013-07-09 13:46:00,
2013-07-09 09:50:00,75.7,66.5,30.07,WSW,248,0.0,0.0,73,0.00,,,0.00,VWS V14.01,2013-07-09 13:50:00,
2013-07-09 09:51:00,75.7,66.5,30.07,WSW,248,0.0,0.0,73,0.00,,,0.00,VWS V14.01,2013-07-09 13:51:00,
2013-07-09 09:55:00,76.8,67.5,30.07,SE,146,3.1,4.9,73,0.00,,,0.00,VWS V14.01,2013-07-09 13:55:00,
2013-07-09 09:56:00,76.8,67.5,30.07,SW,226,3.1,3.1,73,0.00,,,0.00,VWS V14.01,2013-07-09 13:56:00,
2013-07-09 10:00:00,76.8,67.5,30.07,SW,231,0.0,5.4,73,0.00,,,0.00,VWS V14.01,2013-07-09 14:00:00,
2013-07-09 10:01:00,76.8,67.5,30.07,SW,231,0.0,0.0,73,0.00,,,0.00,VWS V14.01,2013-07-09 14:01:00,
2013-07-09 10:05:00,76.8,67.5,30.07,SW,231,0.0,0.0,73,0.00,,,0.00,VWS V14.01,2013-07-09 14:05:00,
2013-07-09 10:06:00,76.8,67.5,30.07,WSW,249,3.6,4.0,73,0.00,,,0.00,VWS V14.01,2013-07-09 14:06:00,
2013-07-09 10:10:00,76.8,67.5,30.07,WSW,253,0.0,4.0,73,0.00,,,0.00,VWS V14.01,2013-07-09 14:10:00,
2013-07-09 10:11:00,76.8,67.5,30.07,WSW,253,0.0,0.0,73,0.00,,,0.00,VWS V14.01,2013-07-09 14:11:00,
2013-07-09 10:15:00,77.5,66.6,30.07,West,267,0.0,7.6,69,0.00,,,0.00,VWS V14.01,2013-07-09 14:15:00,
2013-07-09 10:16:00,77.5,66.6,30.07,West,267,0.0,2.7,69,0.00,,,0.00,VWS V14.01,2013-07-09 14:16:00,
2013-07-09 10:20:00,77.5,66.6,30.07,West,266,2.7,2.7,69,0.00,,,0.00,VWS V14.01,2013-07-09 14:20:00,
2013-07-09 10:21:00,77.5,66.6,30.07,West,266,0.0,2.7,69,0.00,,,0.00,VWS V14.01,2013-07-09 14:21:00,
2013-07-09 10:25:00,77.5,66.6,30.07,West,266,0.0,2.7,69,0.00,,,0.00,VWS V14.01,2013-07-09 14:25:00,
2013-07-09 10:26:00,77.5,66.6,30.07,West,267,0.0,0.0,69,0.00,,,0.00,VWS V14.01,2013-07-09 14:26:00,
2013-07-09 10:30:00,77.5,66.6,30.07,West,266,0.0,0.0,69,0.00,,,0.00,VWS V14.01,2013-07-09 14:30:00,
2013-07-09 10:31:00,77.5,66.6,30.07,West,266,0.0,0.0,69,0.00,,,0.00,VWS V14.01,2013-07-09 14:31:00,
2013-07-09 10:35:00,77.5,66.6,30.07,West,266,0.0,0.0,69,0.00,,,0.00,VWS V14.01,2013-07-09 14:35:00,
2013-07-09 10:36:00,77.5,66.6,30.07,West,266,0.0,0.0,69,0.00,,,0.00,VWS V14.01,2013-07-09 14:36:00,
2013-07-09 10:40:00,77.5,66.6,30.07,West,271,0.0,3.1,69,0.00,,,0.00,VWS V14.01,2013-07-09 14:40:00,
2013-07-09 10:41:00,77.5,66.6,30.07,West,271,0.0,3.6,69,0.00,,,0.00,VWS V14.01,2013-07-09 14:41:00,
2013-07-09 10:45:00,77.5,66.6,30.07,West,269,0.0,4.0,69,0.00,,,0.00,VWS V14.01,2013-07-09 14:45:00,
2013-07-09 10:46:00,77.5,66.6,30.07,West,269,0.0,0.0,69,0.00,,,0.00,VWS V14.01,2013-07-09 14:46:00,
2013-07-09 10:50:00,77.5,66.6,30.07,West,269,0.0,0.0,69,0.00,,,0.00,VWS V14.01,2013-07-09 14:50:00,
2013-07-09 10:51:00,77.5,66.6,30.07,SW,220,5.4,8.1,69,0.00,,,0.00,VWS V14.01,2013-07-09 14:51:00,
2013-07-09 10:55:00,77.5,66.6,30.07,West,270,0.0,8.1,69,0.00,,,0.00,VWS V14.01,2013-07-09 14:55:00,
2013-07-09 10:56:00,77.5,66.6,30.07,West,270,0.0,2.7,69,0.00,,,0.00,VWS V14.01,2013-07-09 14:56:00,
2013-07-09 11:00:00,77.5,66.6,30.07,WSW,252,3.6,4.9,69,0.00,,,0.00,VWS V14.01,2013-07-09 15:00:00,
2013-07-09 11:01:00,77.5,66.6,30.07,WSW,252,0.0,4.0,69,0.00,,,0.00,VWS V14.01,2013-07-09 15:01:00,
2013-07-09 11:05:00,79.5,66.3,30.07,WSW,252,3.6,4.0,64,0.00,,,0.00,VWS V14.01,2013-07-09 15:05:00,
2013-07-09 11:06:00,79.5,66.3,30.07,WSW,252,0.0,3.6,64,0.00,,,0.00,VWS V14.01,2013-07-09 15:06:00,
2013-07-09 11:10:00,79.9,66.2,30.07,WSW,252,0.0,3.6,63,0.00,,,0.00,VWS V14.01,2013-07-09 15:10:00,
2013-07-09 11:11:00,79.7,66.0,30.07,NNW,342,3.1,3.6,63,0.00,,,0.00,VWS V14.01,2013-07-09 15:11:00,
2013-07-09 11:15:00,79.5,65.8,30.07,NNW,346,0.0,3.6,63,0.00,,,0.00,VWS V14.01,2013-07-09 15:15:00,
2013-07-09 11:16:00,79.5,65.8,30.07,NNW,346,0.0,0.0,63,0.00,,,0.00,VWS V14.01,2013-07-09 15:16:00,
2013-07-09 11:20:00,79.5,65.8,30.07,West,281,0.0,4.0,63,0.00,,,0.00,VWS V14.01,2013-07-09 15:20:00,
2013-07-09 11:21:00,79.5,65.8,30.07,West,281,0.0,0.0,63,0.00,,,0.00,VWS V14.01,2013-07-09 15:21:00,
2013-07-09 11:25:00,79.5,65.8,30.07,West,281,0.0,0.0,63,0.00,,,0.00,VWS V14.01,2013-07-09 15:25:00,
2013-07-09 11:26:00,79.5,65.8,30.07,West,280,0.0,0.0,63,0.00,,,0.00,VWS V14.01,2013-07-09 15:26:00,
2013-07-09 11:30:00,80.1,66.8,30.07,West,281,0.0,0.0,64,0.00,,,0.00,VWS V14.01,2013-07-09 15:30:00,
2013-07-09 11:31:00,80.1,67.2,30.07,West,281,0.0,0.0,65,0.00,,,0.00,VWS V14.01,2013-07-09 15:31:00,
2013-07-09 11:35:00,80.2,67.4,30.07,West,281,0.0,0.0,65,0.00,,,0.00,VWS V14.01,2013-07-09 15:35:00,
2013-07-09 11:36:00,80.4,67.6,30.07,West,281,0.0,0.0,65,0.00,,,0.00,VWS V14.01,2013-07-09 15:36:00,
2013-07-09 11:40:00,80.6,67.8,30.07,West,280,0.0,0.0,65,0.00,,,0.00,VWS V14.01,2013-07-09 15:40:00,
2013-07-09 11:41:00,80.8,67.5,30.07,South,169,3.1,4.0,64,0.00,,,0.00,VWS V14.01,2013-07-09 15:41:00,
2013-07-09 11:45:00,81.0,67.2,30.07,South,169,0.0,4.0,63,0.00,,,0.00,VWS V14.01,2013-07-09 15:45:00,
2013-07-09 11:46:00,81.0,67.2,30.07,West,278,3.6,3.6,63,0.00,,,0.00,VWS V14.01,2013-07-09 15:46:00,
2013-07-09 11:50:00,81.1,67.4,30.07,West,278,0.0,3.6,63,0.00,,,0.00,VWS V14.01,2013-07-09 15:50:00,
2013-07-09 11:51:00,81.1,67.4,30.07,West,278,0.0,0.0,63,0.00,,,0.00,VWS V14.01,2013-07-09 15:51:00,
2013-07-09 11:55:00,81.1,67.4,30.07,SSW,203,2.7,3.6,63,0.00,,,0.00,VWS V14.01,2013-07-09 15:55:00,
2013-07-09 11:56:00,81.1,67.4,30.07,SSW,203,0.0,3.1,63,0.00,,,0.00,VWS V14.01,2013-07-09 15:56:00,
2013-07-09 12:00:00,81.3,68.0,30.07,SSW,203,0.0,3.6,64,0.00,,,0.00,VWS V14.01,2013-07-09 16:00:00,
2013-07-09 12:01:00,81.3,68.0,30.07,South,170,4.0,4.0,64,0.00,,,0.00,VWS V14.01,2013-07-09 16:01:00,
2013-07-09 12:05:00,81.5,68.2,30.07,South,171,0.0,4.0,64,0.00,,,0.00,VWS V14.01,2013-07-09 16:05:00,
2013-07-09 12:06:00,81.5,68.2,30.07,South,171,0.0,2.7,64,0.00,,,0.00,VWS V14.01,2013-07-09 16:06:00,
2013-07-09 12:10:00,81.5,68.2,30.07,West,267,0.0,3.6,64,0.00,,,0.00,VWS V14.01,2013-07-09 16:10:00,
2013-07-09 12:11:00,81.5,67.7,30.07,West,267,2.7,3.1,63,0.00,,,0.00,VWS V14.01,2013-07-09 16:11:00,
2013-07-09 12:15:00,81.5,67.7,30.07,West,278,2.7,4.0,63,0.00,,,0.00,VWS V14.01,2013-07-09 16:15:00,
2013-07-09 12:16:00,81.3,67.1,30.07,West,265,0.0,6.3,62,0.00,,,0.00,VWS V14.01,2013-07-09 16:16:00,
2013-07-09 12:20:00,81.5,67.2,30.07,West,265,0.0,6.3,62,0.00,,,0.00,VWS V14.01,2013-07-09 16:20:00,
2013-07-09 12:21:00,81.5,67.2,30.07,West,277,4.9,4.9,62,0.00,,,0.00,VWS V14.01,2013-07-09 16:21:00,
2013-07-09 12:25:00,81.1,66.4,30.07,West,270,2.2,7.6,61,0.00,,,0.00,VWS V14.01,2013-07-09 16:25:00,
2013-07-09 12:26:00,81.1,66.4,30.07,WNW,285,2.7,5.8,61,0.00,,,0.00,VWS V14.01,2013-07-09 16:26:00,
2013-07-09 12:30:00,81.1,66.4,30.07,South,181,0.0,5.8,61,0.00,,,0.00,VWS V14.01,2013-07-09 16:30:00,
2013-07-09 12:31:00,81.1,66.9,30.07,SSW,192,0.0,0.0,62,0.00,,,0.00,VWS V14.01,2013-07-09 16:31:00,
2013-07-09 12:35:00,81.7,66.9,30.07,South,185,3.1,4.9,61,0.00,,,0.00,VWS V14.01,2013-07-09 16:35:00,
2013-07-09 12:36:00,82.0,67.3,30.07,South,185,3.6,4.0,61,0.00,,,0.00,VWS V14.01,2013-07-09 16:36:00,
2013-07-09 12:40:00,82.6,66.8,30.07,SW,215,3.1,5.4,59,0.00,,,0.00,VWS V14.01,2013-07-09 16:40:00,
2013-07-09 12:41:00,82.9,67.2,30.07,West,264,3.1,3.1,59,0.00,,,0.00,VWS V14.01,2013-07-09 16:41:00,
2013-07-09 12:45:00,83.3,67.5,30.07,SSW,192,2.7,4.0,59,0.00,,,0.00,VWS V14.01,2013-07-09 16:45:00,
2013-07-09 12:46:00,83.1,66.3,30.07,WSW,256,5.4,8.3,57,0.00,,,0.00,VWS V14.01,2013-07-09 16:46:00,
2013-07-09 12:50:00,83.3,66.0,30.07,WSW,254,4.0,8.3,56,0.00,,,0.00,VWS V14.01,2013-07-09 16:50:00,
2013-07-09 12:51:00,83.3,66.5,30.07,SSW,212,2.7,5.4,57,0.00,,,0.00,VWS V14.01,2013-07-09 16:51:00,
2013-07-09 12:55:00,84.0,67.2,30.07,West,262,4.0,5.4,57,0.00,,,0.00,VWS V14.01,2013-07-09 16:55:00,
2013-07-09 12:56:00,84.4,67.5,30.07,WSW,240,2.7,4.0,57,0.00,,,0.00,VWS V14.01,2013-07-09 16:56:00,
2013-07-09 13:00:00,84.2,67.8,30.07,South,187,5.8,5.8,58,0.00,,,0.00,VWS V14.01,2013-07-09 17:00:00,
2013-07-09 13:01:00,84.2,67.8,30.07,South,180,2.2,5.8,58,0.00,,,0.00,VWS V14.01,2013-07-09 17:01:00,
2013-07-09 13:05:00,84.2,67.8,30.07,NW,315,0.0,5.8,58,0.00,,,0.00,VWS V14.01,2013-07-09 17:05:00,
2013-07-09 13:06:00,84.4,68.0,30.07,SW,226,2.7,3.1,58,0.00,,,0.00,VWS V14.01,2013-07-09 17:06:00,
2013-07-09 13:10:00,84.0,68.2,30.07,West,264,5.8,7.6,59,0.00,,,0.00,VWS V14.01,2013-07-09 17:10:00,
2013-07-09 13:11:00,83.8,68.0,30.07,West,268,5.4,5.8,59,0.00,,,0.00,VWS V14.01,2013-07-09 17:11:00,
2013-07-09 13:15:00,84.2,68.3,30.07,WSW,254,3.1,6.3,59,0.00,,,0.00,VWS V14.01,2013-07-09 17:15:00,
2013-07-09 13:16:00,84.6,68.2,30.07,WNW,297,0.0,6.3,58,0.00,,,0.00,VWS V14.01,2013-07-09 17:16:00,
2013-07-09 13:20:00,84.6,67.7,30.07,West,279,3.6,8.1,57,0.00,,,0.00,VWS V14.01,2013-07-09 17:20:00,
2013-07-09 13:22:00,84.6,67.7,30.07,SW,217,3.6,4.0,57,0.00,,,0.00,VWS V14.01,2013-07-09 17:22:00,
2013-07-09 13:25:00,85.5,68.5,30.07,SW,227,2.7,4.0,57,0.00,,,0.00,VWS V14.01,2013-07-09 17:25:00,
2013-07-09 13:27:00,86.0,68.5,30.07,WSW,253,0.0,4.0,56,0.00,,,0.00,VWS V14.01,2013-07-09 17:27:00,
2013-07-09 13:30:00,86.2,67.6,30.07,WSW,248,4.0,8.1,54,0.00,,,0.00,VWS V14.01,2013-07-09 17:30:00,
2013-07-09 13:32:00,86.7,67.6,30.07,West,264,0.0,5.8,53,0.00,,,0.00,VWS V14.01,2013-07-09 17:32:00,
2013-07-09 13:35:00,87.6,67.8,30.07,SW,227,2.2,5.8,52,0.00,,,0.00,VWS V14.01,2013-07-09 17:35:00,
2013-07-09 13:37:00,87.8,66.9,30.07,WNW,283,3.6,4.9,50,0.00,,,0.00,VWS V14.01,2013-07-09 17:37:00,
2013-07-09 13:40:00,87.8,66.9,30.07,West,275,2.7,4.9,50,0.00,,,0.00,VWS V14.01,2013-07-09 17:40:00,
2013-07-09 13:42:00,88.2,67.2,30.07,SW,216,3.1,3.6,50,0.00,,,0.00,VWS V14.01,2013-07-09 17:42:00,
2013-07-09 13:45:00,88.5,67.5,30.07,SSW,204,2.2,4.9,50,0.00,,,0.00,VWS V14.01,2013-07-09 17:45:00,
2013-07-09 13:47:00,89.1,68.0,30.07,SSW,203,2.2,3.6,50,0.00,,,0.00,VWS V14.01,2013-07-09 17:47:00,
2013-07-09 13:50:00,88.7,66.5,30.07,West,273,2.2,8.3,48,0.00,,,0.00,VWS V14.01,2013-07-09 17:50:00,
2013-07-09 13:52:00,88.7,66.5,30.07,West,266,2.7,4.9,48,0.00,,,0.00,VWS V14.01,2013-07-09 17:52:00,
2013-07-09 13:55:00,88.9,67.3,30.07,South,184,3.6,5.8,49,0.00,,,0.00,VWS V14.01,2013-07-09 17:55:00,
2013-07-09 13:57:00,89.1,67.4,30.07,SSW,199,2.7,3.6,49,0.00,,,0.00,VWS V14.01,2013-07-09 17:57:00,
2013-07-09 14:00:00,88.7,65.9,30.07,West,262,3.1,5.4,47,0.00,,,0.00,VWS V14.01,2013-07-09 18:00:00,
2013-07-09 14:02:00,88.7,66.5,30.07,SSW,194,3.6,5.4,48,0.00,,,0.00,VWS V14.01,2013-07-09 18:02:00,
2013-07-09 14:05:00,88.7,66.5,30.07,WSW,258,3.1,5.4,48,0.00,,,0.00,VWS V14.01,2013-07-09 18:05:00,
2013-07-09 14:07:00,87.6,65.5,30.07,SW,233,6.3,8.3,48,0.00,,,0.00,VWS V14.01,2013-07-09 18:07:00,
2013-07-09 14:10:00,86.9,65.5,30.07,South,173,2.7,8.3,49,0.00,,,0.00,VWS V14.01,2013-07-09 18:10:00,
2013-07-09 14:12:00,87.1,65.6,30.04,SSW,205,4.0,4.0,49,0.00,,,0.00,VWS V14.01,2013-07-09 18:12:00,
2013-07-09 14:15:00,86.7,65.3,30.04,West,279,0.0,8.1,49,0.00,,,0.00,VWS V14.01,2013-07-09 18:15:00,
2013-07-09 14:17:00,86.4,65.0,30.04,WSW,237,3.6,4.0,49,0.00,,,0.00,VWS V14.01,2013-07-09 18:17:00,
2013-07-09 14:20:00,85.8,65.1,30.04,WSW,256,0.0,6.7,50,0.00,,,0.00,VWS V14.01,2013-07-09 18:20:00,
2013-07-09 14:22:00,85.6,65.4,30.04,WSW,250,3.6,5.8,51,0.00,,,0.00,VWS V14.01,2013-07-09 18:22:00,
2013-07-09 14:25:00,85.3,65.7,30.04,WSW,254,3.1,5.8,52,0.00,,,0.00,VWS V14.01,2013-07-09 18:25:00,
2013-07-09 14:27:00,85.1,66.1,30.04,SSW,208,2.2,3.6,53,0.00,,,0.00,VWS V14.01,2013-07-09 18:27:00,
2013-07-09 14:30:00,85.6,66.6,30.04,SSW,198,0.0,3.6,53,0.00,,,0.00,VWS V14.01,2013-07-09 18:30:00,
2013-07-09 14:32:00,85.6,66.0,30.04,South,170,0.0,4.0,52,0.00,,,0.00,VWS V14.01,2013-07-09 18:32:00,
2013-07-09 14:35:00,86.0,66.3,30.04,West,280,5.4,5.4,52,0.00,,,0.00,VWS V14.01,2013-07-09 18:35:00,
2013-07-09 14:37:00,86.4,66.1,30.04,West,267,3.1,5.4,51,0.00,,,0.00,VWS V14.01,2013-07-09 18:37:00,
2013-07-09 14:40:00,86.4,65.5,30.04,West,260,5.4,6.3,50,0.00,,,0.00,VWS V14.01,2013-07-09 18:40:00,
2013-07-09 14:42:00,86.2,65.9,30.04,West,259,4.0,5.8,51,0.00,,,0.00,VWS V14.01,2013-07-09 18:42:00,
2013-07-09 14:45:00,86.7,66.4,30.04,SW,222,6.3,6.3,51,0.00,,,0.00,VWS V14.01,2013-07-09 18:45:00,
2013-07-09 14:47:00,86.9,66.6,30.04,West,259,4.9,6.3,51,0.00,,,0.00,VWS V14.01,2013-07-09 18:47:00,
2013-07-09 14:50:00,86.7,65.3,30.04,WNW,303,4.9,8.1,49,0.00,,,0.00,VWS V14.01,2013-07-09 18:50:00,
2013-07-09 14:52:00,86.7,65.3,30.04,WSW,254,3.1,4.9,49,0.00,,,0.00,VWS V14.01,2013-07-09 18:52:00,
2013-07-09 14:55:00,86.5,65.1,30.04,WSW,256,5.8,8.1,49,0.00,,,0.00,VWS V14.01,2013-07-09 18:55:00,
2013-07-09 14:57:00,87.1,66.2,30.04,WNW,283,3.6,5.8,50,0.00,,,0.00,VWS V14.01,2013-07-09 18:57:00,
2013-07-09 15:00:00,86.7,65.3,30.04,SSW,204,2.2,8.3,49,0.00,,,0.00,VWS V14.01,2013-07-09 19:00:00,
2013-07-09 15:02:00,86.7,65.3,30.04,South,189,4.0,6.3,49,0.00,,,0.00,VWS V14.01,2013-07-09 19:02:00,
2013-07-09 15:05:00,87.1,66.2,30.04,South,190,2.7,6.3,50,0.00,,,0.00,VWS V14.01,2013-07-09 19:05:00,
2013-07-09 15:07:00,87.6,66.7,30.04,WSW,253,3.1,5.8,50,0.00,,,0.00,VWS V14.01,2013-07-09 19:07:00,
2013-07-09 15:10:00,88.2,67.2,30.04,West,266,3.1,5.8,50,0.00,,,0.00,VWS V14.01,2013-07-09 19:10:00,
2013-07-09 15:12:00,88.3,66.8,30.04,WNW,295,6.3,6.3,49,0.00,,,0.00,VWS V14.01,2013-07-09 19:12:00,
2013-07-09 15:15:00,88.3,66.8,30.04,West,259,2.7,6.3,49,0.00,,,0.00,VWS V14.01,2013-07-09 19:15:00,
2013-07-09 15:17:00,88.5,66.9,30.04,West,269,3.6,3.6,49,0.00,,,0.00,VWS V14.01,2013-07-09 19:17:00,
2013-07-09 15:20:00,89.1,67.4,30.04,West,267,4.9,5.4,49,0.00,,,0.00,VWS V14.01,2013-07-09 19:20:00,
2013-07-09 15:22:00,88.7,65.9,30.04,WSW,242,5.8,8.7,47,0.00,,,0.00,VWS V14.01,2013-07-09 19:22:00,
2013-07-09 15:25:00,88.2,65.4,30.04,WSW,252,4.0,8.7,47,0.00,,,0.00,VWS V14.01,2013-07-09 19:25:00,
2013-07-09 15:27:00,88.2,66.0,30.04,SW,236,2.2,8.3,48,0.00,,,0.00,VWS V14.01,2013-07-09 19:27:00,
2013-07-09 15:30:00,88.5,66.3,30.04,SSW,205,3.6,8.3,48,0.00,,,0.00,VWS V14.01,2013-07-09 19:30:00,
2013-07-09 15:32:00,88.7,67.1,30.04,SSW,201,2.2,4.0,49,0.00,,,0.00,VWS V14.01,2013-07-09 19:32:00,
2013-07-09 15:35:00,87.8,65.7,30.04,West,263,3.1,5.8,48,0.00,,,0.00,VWS V14.01,2013-07-09 19:35:00,
2013-07-09 15:37:00,86.7,65.3,30.04,SW,235,3.1,5.8,49,0.00,,,0.00,VWS V14.01,2013-07-09 19:37:00,
2013-07-09 15:40:00,86.0,64.6,30.04,West,276,0.0,6.7,49,0.00,,,0.00,VWS V14.01,2013-07-09 19:40:00,
2013-07-09 15:42:00,85.3,65.1,30.04,West,271,0.0,4.0,51,0.00,,,0.00,VWS V14.01,2013-07-09 19:42:00,
2013-07-09 15:44:00,85.3,65.1,30.04,West,271,0.0,4.0,51,0.00,,,0.00,VWS V14.01,2013-07-09 19:44:00,
2013-07-09 15:45:00,85.3,65.1,30.04,West,271,0.0,4.0,51,0.00,,,0.00,VWS V14.01,2013-07-09 19:45:00,
2013-07-09 15:49:00,85.3,66.2,30.04,SSW,201,0.0,3.1,53,0.00,,,0.00,VWS V14.01,2013-07-09 19:49:00,
2013-07-09 15:50:00,85.5,66.4,30.04,South,184,4.9,4.9,53,0.00,,,0.00,VWS V14.01,2013-07-09 19:50:00,
2013-07-09 15:54:00,85.8,65.6,30.04,West,271,0.0,6.3,51,0.00,,,0.00,VWS V14.01,2013-07-09 19:54:00,
2013-07-09 15:55:00,85.8,65.6,30.04,West,271,2.7,6.3,51,0.00,,,0.00,VWS V14.01,2013-07-09 19:55:00,
2013-07-09 15:59:00,86.0,65.8,30.04,West,265,0.0,5.8,51,0.00,,,0.00,VWS V14.01,2013-07-09 19:59:00,
2013-07-09 16:00:00,86.0,65.8,30.04,West,265,0.0,5.8,51,0.00,,,0.00,VWS V14.01,2013-07-09 20:00:00,
2013-07-09 16:04:00,86.5,64.5,30.04,SSW,197,2.7,11.0,48,0.00,,,0.00,VWS V14.01,2013-07-09 20:04:00,
2013-07-09 16:05:00,86.5,64.5,30.04,SSW,197,2.7,11.0,48,0.00,,,0.00,VWS V14.01,2013-07-09 20:05:00,
2013-07-09 16:09:00,87.1,65.6,30.04,SSW,199,3.6,4.9,49,0.00,,,0.00,VWS V14.01,2013-07-09 20:09:00,
2013-07-09 16:10:00,87.1,65.6,30.04,SSW,199,2.7,4.9,49,0.00,,,0.00,VWS V14.01,2013-07-09 20:10:00,
2013-07-09 16:14:00,87.1,65.6,30.01,SW,214,3.1,4.0,49,0.00,,,0.00,VWS V14.01,2013-07-09 20:14:00,
2013-07-09 16:15:00,87.1,65.6,30.01,SW,219,4.0,4.0,49,0.00,,,0.00,VWS V14.01,2013-07-09 20:15:00,
2013-07-09 16:19:00,87.1,65.6,30.01,West,268,2.7,4.0,49,0.00,,,0.00,VWS V14.01,2013-07-09 20:19:00,
2013-07-09 16:20:00,87.1,65.6,30.01,West,268,2.2,4.0,49,0.00,,,0.00,VWS V14.01,2013-07-09 20:20:00,
2013-07-09 16:24:00,87.1,65.6,30.01,West,267,2.7,3.6,49,0.00,,,0.00,VWS V14.01,2013-07-09 20:24:00,
2013-07-09 16:25:00,87.1,65.6,30.01,West,267,2.7,3.6,49,0.00,,,0.00,VWS V14.01,2013-07-09 20:25:00,
2013-07-09 16:29:00,87.3,64.0,30.01,West,277,4.0,9.2,46,0.00,,,0.00,VWS V14.01,2013-07-09 20:29:00,
2013-07-09 16:30:00,87.3,64.0,30.01,West,277,3.6,9.2,46,0.00,,,0.00,VWS V14.01,2013-07-09 20:30:00,
2013-07-09 16:35:00,87.3,64.0,30.01,WNW,291,3.1,6.3,46,0.00,,,0.00,VWS V14.01,2013-07-09 20:35:00,
2013-07-09 16:40:00,87.3,64.0,30.01,West,259,0.0,5.4,46,0.00,,,0.00,VWS V14.01,2013-07-09 20:40:00,
2013-07-09 16:45:00,87.3,64.0,30.01,West,270,3.1,6.3,46,0.00,,,0.00,VWS V14.01,2013-07-09 20:45:00,
2013-07-09 16:50:00,87.3,64.0,30.01,South,185,0.0,0.0,46,0.00,,,0.00,VWS V14.01,2013-07-09 20:50:00,
2013-07-09 16:55:00,87.3,64.0,30.01,WSW,257,5.4,5.8,46,0.00,,,0.00,VWS V14.01,2013-07-09 20:55:00,
2013-07-09 17:00:00,87.3,64.0,30.01,WSW,254,2.7,5.4,46,0.00,,,0.00,VWS V14.01,2013-07-09 21:00:00,
2013-07-09 17:05:00,87.3,64.0,30.01,WNW,284,0.0,5.4,46,0.00,,,0.00,VWS V14.01,2013-07-09 21:05:00,
2013-07-09 17:10:00,87.3,64.0,30.01,West,260,0.0,5.4,46,0.00,,,0.00,VWS V14.01,2013-07-09 21:10:00,
2013-07-09 17:15:00,85.1,65.5,30.01,WNW,291,3.1,4.9,52,0.00,,,0.00,VWS V14.01,2013-07-09 21:15:00,
2013-07-09 17:20:00,85.1,65.5,30.01,South,186,3.1,4.0,52,0.00,,,0.00,VWS V14.01,2013-07-09 21:20:00,
2013-07-09 17:25:00,85.1,65.5,30.01,SW,232,2.2,2.2,52,0.00,,,0.00,VWS V14.01,2013-07-09 21:25:00,
2013-07-09 17:30:00,83.7,65.3,30.01,West,273,2.2,3.6,54,0.00,,,0.00,VWS V14.01,2013-07-09 21:30:00,
2013-07-09 17:35:00,83.3,64.9,30.01,WSW,247,0.0,0.0,54,0.00,,,0.00,VWS V14.01,2013-07-09 21:35:00,
2013-07-09 17:40:00,83.1,65.8,30.01,West,269,0.0,0.0,56,0.00,,,0.00,VWS V14.01,2013-07-09 21:40:00,
2013-07-09 17:45:00,82.9,66.2,30.01,West,262,2.7,2.7,57,0.00,,,0.00,VWS V14.01,2013-07-09 21:45:00,
2013-07-09 17:50:00,82.9,66.2,30.01,West,261,0.0,0.0,57,0.00,,,0.00,VWS V14.01,2013-07-09 21:50:00,
2013-07-09 17:55:00,82.9,66.2,30.01,West,261,0.0,0.0,57,0.00,,,0.00,VWS V14.01,2013-07-09 21:55:00,
2013-07-09 18:00:00,82.4,66.7,30.01,WSW,258,2.2,2.2,59,0.00,,,0.00,VWS V14.01,2013-07-09 22:00:00,
2013-07-09 18:05:00,82.4,66.7,30.01,SSW,209,0.0,0.0,59,0.00,,,0.00,VWS V14.01,2013-07-09 22:05:00,
2013-07-09 18:10:00,82.4,66.7,30.01,SSW,209,0.0,0.0,59,0.00,,,0.00,VWS V14.01,2013-07-09 22:10:00,
2013-07-09 18:15:00,82.4,66.7,29.98,SSW,209,0.0,0.0,59,0.00,,,0.00,VWS V14.01,2013-07-09 22:15:00,
2013-07-09 18:20:00,81.1,65.9,29.98,WNW,295,7.6,8.7,60,0.00,,,0.00,VWS V14.01,2013-07-09 22:20:00,
2013-07-09 18:25:00,79.0,63.9,29.98,NW,310,3.1,8.3,60,0.00,,,0.00,VWS V14.01,2013-07-09 22:25:00,
2013-07-09 18:30:00,76.1,61.7,30.04,West,269,3.6,5.8,61,0.00,,,0.00,VWS V14.01,2013-07-09 22:30:00,
2013-07-09 18:35:00,74.8,61.4,30.04,SW,232,4.0,10.5,63,0.00,,,0.00,VWS V14.01,2013-07-09 22:35:00,
2013-07-09 18:40:00,73.9,61.4,30.04,WSW,251,7.6,7.6,65,0.00,,,0.00,VWS V14.01,2013-07-09 22:40:00,
2013-07-09 18:45:00,72.1,61.4,30.04,West,274,3.1,6.3,69,0.04,,,0.04,VWS V14.01,2013-07-09 22:45:00,
2013-07-09 18:50:00,72.0,62.5,30.04,West,261,2.2,2.2,72,0.08,,,0.08,VWS V14.01,2013-07-09 22:50:00,
2013-07-09 18:55:00,72.0,63.2,30.04,West,261,0.0,0.0,74,0.12,,,0.12,VWS V14.01,2013-07-09 22:55:00,
2013-07-09 19:00:00,71.8,63.4,30.04,West,261,0.0,0.0,75,0.16,,,0.16,VWS V14.01,2013-07-09 23:00:00,
2013-07-09 19:01:00,71.8,63.8,30.04,West,261,0.0,0.0,76,0.16,,,0.16,VWS V14.01,2013-07-09 23:01:00,
2013-07-09 19:05:00,71.8,64.2,30.04,West,261,0.0,0.0,77,0.16,,,0.16,VWS V14.01,2013-07-09 23:05:00,
2013-07-09 19:06:00,71.8,64.2,30.04,West,261,0.0,0.0,77,0.16,,,0.16,VWS V14.01,2013-07-09 23:06:00,
2013-07-09 19:10:00,71.6,64.0,30.04,West,261,0.0,0.0,77,0.16,,,0.16,VWS V14.01,2013-07-09 23:10:00,
2013-07-09 19:11:00,71.4,64.2,30.04,West,261,0.0,0.0,78,0.16,,,0.16,VWS V14.01,2013-07-09 23:11:00,
2013-07-09 19:15:00,71.2,64.4,30.04,West,261,0.0,0.0,79,0.16,,,0.16,VWS V14.01,2013-07-09 23:15:00,
2013-07-09 19:16:00,71.2,64.4,30.04,West,261,0.0,0.0,79,0.16,,,0.16,VWS V14.01,2013-07-09 23:16:00,
2013-07-09 19:20:00,70.9,64.4,30.04,West,261,0.0,0.0,80,0.16,,,0.16,VWS V14.01,2013-07-09 23:20:00,
2013-07-09 19:21:00,70.9,64.4,30.04,West,261,0.0,0.0,80,0.16,,,0.16,VWS V14.01,2013-07-09 23:21:00,
2013-07-09 19:25:00,70.9,64.8,30.04,West,261,0.0,0.0,81,0.20,,,0.20,VWS V14.01,2013-07-09 23:25:00,
2013-07-09 19:26:00,70.9,64.8,30.04,West,261,0.0,0.0,81,0.20,,,0.20,VWS V14.01,2013-07-09 23:26:00,
2013-07-09 19:30:00,70.7,64.6,30.04,West,261,0.0,0.0,81,0.20,,,0.20,VWS V14.01,2013-07-09 23:30:00,
2013-07-09 19:31:00,70.7,64.9,30.04,West,261,0.0,0.0,82,0.20,,,0.20,VWS V14.01,2013-07-09 23:31:00,
2013-07-09 19:35:00,70.7,64.9,30.04,West,261,0.0,0.0,82,0.20,,,0.20,VWS V14.01,2013-07-09 23:35:00,
2013-07-09 19:36:00,70.7,65.3,30.04,West,261,0.0,0.0,83,0.20,,,0.20,VWS V14.01,2013-07-09 23:36:00,
2013-07-09 19:40:00,70.9,65.5,30.04,West,261,0.0,0.0,83,0.20,,,0.20,VWS V14.01,2013-07-09 23:40:00,
2013-07-09 19:41:00,70.9,65.5,30.01,West,261,0.0,0.0,83,0.20,,,0.20,VWS V14.01,2013-07-09 23:41:00,
2013-07-09 19:45:00,71.1,66.0,30.01,West,261,0.0,0.0,84,0.20,,,0.20,VWS V14.01,2013-07-09 23:45:00,
2013-07-09 19:46:00,71.1,66.0,30.01,West,260,0.0,0.0,84,0.16,,,0.20,VWS V14.01,2013-07-09 23:46:00,
2013-07-09 19:50:00,70.9,65.8,30.01,West,261,0.0,0.0,84,0.16,,,0.20,VWS V14.01,2013-07-09 23:50:00,
2013-07-09 19:51:00,70.9,66.2,30.01,West,261,0.0,0.0,85,0.12,,,0.20,VWS V14.01,2013-07-09 23:51:00,
2013-07-09 19:55:00,71.1,66.3,30.01,West,261,0.0,0.0,85,0.12,,,0.20,VWS V14.01,2013-07-09 23:55:00,
2013-07-09 19:56:00,71.1,66.3,30.01,West,261,0.0,0.0,85,0.08,,,0.20,VWS V14.01,2013-07-09 23:56:00,
2013-07-09 20:00:00,71.1,66.7,30.01,West,261,0.0,0.0,86,0.08,,,0.20,VWS V14.01,2013-07-10 00:00:00,
2013-07-09 20:01:00,71.1,66.7,30.01,West,261,0.0,0.0,86,0.04,,,0.20,VWS V14.01,2013-07-10 00:01:00,
2013-07-09 20:05:00,71.1,66.7,30.01,West,261,0.0,0.0,86,0.04,,,0.20,VWS V14.01,2013-07-10 00:05:00,
2013-07-09 20:06:00,71.1,66.7,30.01,West,261,0.0,0.0,86,0.04,,,0.20,VWS V14.01,2013-07-10 00:06:00,
2013-07-09 20:10:00,71.1,66.7,30.01,West,261,0.0,0.0,86,0.04,,,0.20,VWS V14.01,2013-07-10 00:10:00,
2013-07-09 20:11:00,70.9,66.5,30.01,West,261,0.0,0.0,86,0.04,,,0.20,VWS V14.01,2013-07-10 00:11:00,
2013-07-09 20:15:00,70.9,66.5,30.01,West,261,0.0,0.0,86,0.04,,,0.20,VWS V14.01,2013-07-10 00:15:00,
2013-07-09 20:16:00,70.9,66.5,30.01,West,261,0.0,0.0,86,0.04,,,0.20,VWS V14.01,2013-07-10 00:16:00,
2013-07-09 20:20:00,70.9,66.5,30.01,West,261,0.0,0.0,86,0.04,,,0.20,VWS V14.01,2013-07-10 00:20:00,
2013-07-09 20:21:00,70.7,66.7,30.01,West,261,0.0,0.0,87,0.04,,,0.20,VWS V14.01,2013-07-10 00:21:00,
2013-07-09 20:25:00,70.7,66.7,30.01,West,261,0.0,0.0,87,0.04,,,0.20,VWS V14.01,2013-07-10 00:25:00,
2013-07-09 20:26:00,70.5,66.5,30.01,West,261,0.0,0.0,87,0.00,,,0.20,VWS V14.01,2013-07-10 00:26:00,
2013-07-09 20:30:00,70.5,66.5,30.01,West,261,0.0,0.0,87,0.00,,,0.20,VWS V14.01,2013-07-10 00:30:00,
2013-07-09 20:31:00,70.5,66.8,30.01,West,261,0.0,0.0,88,0.00,,,0.20,VWS V14.01,2013-07-10 00:31:00,
2013-07-09 20:35:00,70.5,66.8,30.01,West,261,0.0,0.0,88,0.00,,,0.20,VWS V14.01,2013-07-10 00:35:00,
2013-07-09 20:36:00,70.5,66.8,30.01,West,261,0.0,0.0,88,0.00,,,0.20,VWS V14.01,2013-07-10 00:36:00,
2013-07-09 20:40:00,70.5,66.8,30.01,West,261,0.0,0.0,88,0.00,,,0.20,VWS V14.01,2013-07-10 00:40:00,
2013-07-09 20:41:00,70.5,66.8,30.01,West,261,0.0,0.0,88,0.00,,,0.20,VWS V14.01,2013-07-10 00:41:00,
2013-07-09 20:45:00,70.5,66.8,30.01,West,261,0.0,0.0,88,0.00,,,0.20,VWS V14.01,2013-07-10 00:45:00,
2013-07-09 20:46:00,70.5,66.8,30.01,West,261,0.0,0.0,88,0.00,,,0.20,VWS V14.01,2013-07-10 00:46:00,
2013-07-09 20:50:00,70.5,67.1,30.01,West,261,0.0,0.0,89,0.00,,,0.20,VWS V14.01,2013-07-10 00:50:00,
2013-07-09 20:51:00,70.5,67.1,30.01,West,261,0.0,0.0,89,0.00,,,0.20,VWS V14.01,2013-07-10 00:51:00,
2013-07-09 20:55:00,70.5,67.1,30.01,West,261,0.0,0.0,89,0.00,,,0.20,VWS V14.01,2013-07-10 00:55:00,
2013-07-09 20:56:00,70.5,67.1,30.01,West,261,0.0,0.0,89,0.00,,,0.20,VWS V14.01,2013-07-10 00:56:00,
2013-07-09 21:00:00,70.5,67.1,30.01,West,261,0.0,0.0,89,0.00,,,0.20,VWS V14.01,2013-07-10 01:00:00,
2013-07-09 21:01:00,70.5,67.1,30.01,West,261,0.0,0.0,89,0.00,,,0.20,VWS V14.01,2013-07-10 01:01:00,
2013-07-09 21:05:00,70.3,66.9,30.01,West,261,0.0,0.0,89,0.00,,,0.20,VWS V14.01,2013-07-10 01:05:00,
2013-07-09 21:06:00,70.3,66.9,30.01,West,261,0.0,0.0,89,0.00,,,0.20,VWS V14.01,2013-07-10 01:06:00,
2013-07-09 21:10:00,70.3,66.9,30.01,West,261,0.0,3.1,89,0.00,,,0.20,VWS V14.01,2013-07-10 01:10:00,
2013-07-09 21:11:00,70.3,66.9,30.01,West,261,0.0,0.0,89,0.00,,,0.20,VWS V14.01,2013-07-10 01:11:00,
2013-07-09 21:15:00,70.3,66.9,30.01,West,261,0.0,0.0,89,0.00,,,0.20,VWS V14.01,2013-07-10 01:15:00,
2013-07-09 21:16:00,70.2,66.8,30.01,West,261,0.0,0.0,89,0.00,,,0.20,VWS V14.01,2013-07-10 01:16:00,
2013-07-09 21:20:00,70.2,66.8,30.01,West,261,0.0,2.7,89,0.00,,,0.20,VWS V14.01,2013-07-10 01:20:00,
2013-07-09 21:21:00,70.2,67.1,30.01,West,261,0.0,0.0,90,0.00,,,0.20,VWS V14.01,2013-07-10 01:21:00,
2013-07-09 21:25:00,70.2,67.1,30.01,West,261,0.0,0.0,90,0.00,,,0.20,VWS V14.01,2013-07-10 01:25:00,
2013-07-09 21:26:00,70.2,67.1,30.04,West,261,0.0,0.0,90,0.00,,,0.20,VWS V14.01,2013-07-10 01:26:00,
2013-07-09 21:30:00,70.0,66.9,30.04,West,261,0.0,0.0,90,0.00,,,0.20,VWS V14.01,2013-07-10 01:30:00,
2013-07-09 21:31:00,70.0,66.9,30.04,West,261,0.0,0.0,90,0.00,,,0.20,VWS V14.01,2013-07-10 01:31:00,
2013-07-09 21:35:00,70.0,66.9,30.04,West,261,0.0,0.0,90,0.00,,,0.20,VWS V14.01,2013-07-10 01:35:00,
2013-07-09 21:36:00,70.0,66.9,30.04,West,261,0.0,0.0,90,0.00,,,0.20,VWS V14.01,2013-07-10 01:36:00,
2013-07-09 21:40:00,70.0,66.9,30.04,West,261,0.0,0.0,90,0.00,,,0.20,VWS V14.01,2013-07-10 01:40:00,
2013-07-09 21:41:00,70.0,66.9,30.04,West,261,0.0,0.0,90,0.00,,,0.20,VWS V14.01,2013-07-10 01:41:00,
2013-07-09 21:45:00,70.0,66.9,30.04,West,261,0.0,0.0,90,0.00,,,0.20,VWS V14.01,2013-07-10 01:45:00,
2013-07-09 21:46:00,70.0,66.9,30.04,West,261,0.0,0.0,90,0.00,,,0.20,VWS V14.01,2013-07-10 01:46:00,
2013-07-09 21:50:00,70.0,66.9,30.04,West,261,0.0,0.0,90,0.00,,,0.20,VWS V14.01,2013-07-10 01:50:00,
2013-07-09 21:51:00,70.0,66.9,30.04,West,261,0.0,0.0,90,0.00,,,0.20,VWS V14.01,2013-07-10 01:51:00,
2013-07-09 21:55:00,70.0,67.2,30.04,West,261,0.0,0.0,91,0.00,,,0.20,VWS V14.01,2013-07-10 01:55:00,
2013-07-09 21:56:00,70.0,67.2,30.04,West,261,0.0,0.0,91,0.00,,,0.20,VWS V14.01,2013-07-10 01:56:00,
2013-07-09 22:00:00,70.0,67.2,30.04,West,261,0.0,0.0,91,0.00,,,0.20,VWS V14.01,2013-07-10 02:00:00,
2013-07-09 22:01:00,70.0,67.2,30.04,West,261,0.0,0.0,91,0.00,,,0.20,VWS V14.01,2013-07-10 02:01:00,
2013-07-09 22:05:00,70.0,67.2,30.04,West,261,0.0,0.0,91,0.00,,,0.20,VWS V14.01,2013-07-10 02:05:00,
2013-07-09 22:06:00,70.0,67.2,30.04,West,261,0.0,0.0,91,0.00,,,0.20,VWS V14.01,2013-07-10 02:06:00,
2013-07-09 22:10:00,70.0,67.2,30.04,West,261,0.0,0.0,91,0.00,,,0.20,VWS V14.01,2013-07-10 02:10:00,
2013-07-09 22:11:00,70.0,67.2,30.04,West,261,0.0,0.0,91,0.00,,,0.20,VWS V14.01,2013-07-10 02:11:00,
2013-07-09 22:15:00,70.0,67.2,30.04,West,261,0.0,0.0,91,0.00,,,0.20,VWS V14.01,2013-07-10 02:15:00,
2013-07-09 22:16:00,70.0,67.2,30.04,West,261,0.0,0.0,91,0.00,,,0.20,VWS V14.01,2013-07-10 02:16:00,
2013-07-09 22:20:00,69.8,67.1,30.04,West,261,0.0,0.0,91,0.00,,,0.20,VWS V14.01,2013-07-10 02:20:00,
2013-07-09 22:21:00,69.8,67.1,30.04,West,261,0.0,0.0,91,0.00,,,0.20,VWS V14.01,2013-07-10 02:21:00,
2013-07-09 22:25:00,69.8,67.1,30.04,West,261,0.0,0.0,91,0.00,,,0.20,VWS V14.01,2013-07-10 02:25:00,
2013-07-09 22:26:00,69.8,67.1,30.04,West,261,0.0,0.0,91,0.00,,,0.20,VWS V14.01,2013-07-10 02:26:00,
2013-07-09 22:30:00,69.8,67.1,30.04,West,261,0.0,0.0,91,0.00,,,0.20,VWS V14.01,2013-07-10 02:30:00,
2013-07-09 22:31:00,69.8,67.1,30.04,West,261,0.0,0.0,91,0.00,,,0.20,VWS V14.01,2013-07-10 02:31:00,
2013-07-09 22:35:00,69.8,67.1,30.04,West,261,0.0,0.0,91,0.00,,,0.20,VWS V14.01,2013-07-10 02:35:00,
2013-07-09 22:36:00,70.0,67.2,30.04,West,261,0.0,0.0,91,0.00,,,0.20,VWS V14.01,2013-07-10 02:36:00,
2013-07-09 22:40:00,70.0,67.2,30.04,West,261,0.0,0.0,91,0.00,,,0.20,VWS V14.01,2013-07-10 02:40:00,
2013-07-09 22:41:00,70.0,67.2,30.04,West,261,0.0,0.0,91,0.00,,,0.20,VWS V14.01,2013-07-10 02:41:00,
2013-07-09 22:45:00,70.0,67.2,30.04,West,261,0.0,0.0,91,0.00,,,0.20,VWS V14.01,2013-07-10 02:45:00,
2013-07-09 22:46:00,70.0,67.2,30.04,West,261,0.0,0.0,91,0.00,,,0.20,VWS V14.01,2013-07-10 02:46:00,
2013-07-09 22:50:00,70.0,67.2,30.04,West,261,0.0,0.0,91,0.00,,,0.20,VWS V14.01,2013-07-10 02:50:00,
2013-07-09 22:51:00,70.0,67.2,30.04,West,261,0.0,0.0,91,0.00,,,0.20,VWS V14.01,2013-07-10 02:51:00,
2013-07-09 22:55:00,70.0,67.2,30.04,West,261,0.0,0.0,91,0.00,,,0.20,VWS V14.01,2013-07-10 02:55:00,
2013-07-09 22:56:00,70.0,67.2,30.04,West,261,0.0,0.0,91,0.00,,,0.20,VWS V14.01,2013-07-10 02:56:00,
2013-07-09 23:00:00,70.0,67.2,30.04,West,261,0.0,0.0,91,0.00,,,0.20,VWS V14.01,2013-07-10 03:00:00,
2013-07-09 23:01:00,70.0,67.6,30.04,West,261,0.0,0.0,92,0.00,,,0.20,VWS V14.01,2013-07-10 03:01:00,
2013-07-09 23:05:00,70.0,67.6,30.04,West,261,0.0,0.0,92,0.00,,,0.20,VWS V14.01,2013-07-10 03:05:00,
2013-07-09 23:06:00,70.2,67.7,30.04,West,261,0.0,0.0,92,0.00,,,0.20,VWS V14.01,2013-07-10 03:06:00,
2013-07-09 23:10:00,70.2,67.7,30.04,West,261,0.0,0.0,92,0.00,,,0.20,VWS V14.01,2013-07-10 03:10:00,
2013-07-09 23:11:00,70.2,67.7,30.04,West,261,0.0,0.0,92,0.00,,,0.20,VWS V14.01,2013-07-10 03:11:00,
2013-07-09 23:15:00,70.2,67.7,30.04,West,261,0.0,0.0,92,0.00,,,0.20,VWS V14.01,2013-07-10 03:15:00,
2013-07-09 23:16:00,70.2,67.7,30.04,West,261,0.0,0.0,92,0.00,,,0.20,VWS V14.01,2013-07-10 03:16:00,
2013-07-09 23:20:00,70.3,67.9,30.04,West,261,0.0,0.0,92,0.00,,,0.20,VWS V14.01,2013-07-10 03:20:00,
2013-07-09 23:21:00,70.3,67.9,30.04,West,261,0.0,0.0,92,0.00,,,0.20,VWS V14.01,2013-07-10 03:21:00,
2013-07-09 23:25:00,70.3,67.9,30.04,West,261,0.0,0.0,92,0.00,,,0.20,VWS V14.01,2013-07-10 03:25:00,
2013-07-09 23:26:00,70.3,67.9,30.04,West,261,0.0,0.0,92,0.00,,,0.20,VWS V14.01,2013-07-10 03:26:00,
2013-07-09 23:30:00,70.3,67.9,30.04,West,261,0.0,0.0,92,0.00,,,0.20,VWS V14.01,2013-07-10 03:30:00,
2013-07-09 23:31:00,70.5,68.1,30.04,West,261,0.0,0.0,92,0.00,,,0.20,VWS V14.01,2013-07-10 03:31:00,
2013-07-09 23:35:00,70.5,68.4,30.04,West,261,0.0,0.0,93,0.00,,,0.20,VWS V14.01,2013-07-10 03:35:00,
2013-07-09 23:36:00,70.5,68.4,30.04,West,261,0.0,0.0,93,0.00,,,0.20,VWS V14.01,2013-07-10 03:36:00,
2013-07-09 23:40:00,70.5,68.4,30.04,West,261,0.0,0.0,93,0.00,,,0.20,VWS V14.01,2013-07-10 03:40:00,
2013-07-09 23:41:00,70.5,68.4,30.04,West,261,0.0,0.0,93,0.00,,,0.20,VWS V14.01,2013-07-10 03:41:00,
2013-07-09 23:45:00,70.5,68.4,30.04,West,261,0.0,0.0,93,0.00,,,0.20,VWS V14.01,2013-07-10 03:45:00,
2013-07-09 23:47:00,70.5,68.4,30.04,West,261,0.0,0.0,93,0.00,,,0.20,VWS V14.01,2013-07-10 03:47:00,
2013-07-09 23:50:00,70.5,68.4,30.04,West,261,0.0,0.0,93,0.00,,,0.20,VWS V14.01,2013-07-10 03:50:00,
2013-07-09 23:52:00,70.5,68.4,30.04,West,261,0.0,0.0,93,0.00,,,0.20,VWS V14.01,2013-07-10 03:52:00,
2013-07-09 23:55:00,70.5,68.4,30.04,West,261,0.0,0.0,93,0.00,,,0.20,VWS V14.01,2013-07-10 03:55:00,
2013-07-09 23:57:00,70.5,68.4,30.04,West,261,0.0,0.0,93,0.00,,,0.20,VWS V14.01,2013-07-10 03:57:00,